[Iaude] MPEC N36: 2024 NK [a=1.35,e=0.15,i=21.6,H=23.0]
    mpec at cfa.harvard.edu 
    mpec at cfa.harvard.edu
       
    Thu Jul  4 19:58:21 EDT 2024
    
    
  
M.P.E.C. 2024-N36                                  Issued 2024 July 4, 23:56 UT
     The Minor Planet Electronic Circulars contain information on unusual
         minor planets, routine data on comets and natural satellites,
         and occasional editorial announcements.  They are published
    on behalf of Division F of the International Astronomical Union by the
          Minor Planet Center, Smithsonian Astrophysical Observatory,
                          Cambridge, MA 02138, U.S.A.
			  
             Prepared using the Tamkin Foundation Computer Network
                              MPC at CFA.HARVARD.EDU
            URL https://www.minorplanetcenter.net/    ISSN 1523-6714
                                    2024 NK                                     
Observations:
     K24N00K  C2024 06 13.57372521 56 20.687-34 12 08.78         22.15GVEN036F51
     K24N00K  C2024 06 13.59274621 56 20.937-34 11 00.64         22.72GVEN036F51
     K24N00K  C2024 06 13.60225521 56 21.076-34 10 26.02         21.97GVEN036F51
     K24N00K  C2024 06 28.54855721 53 55.350-14 08 54.55         21.51GVEN036F51
     K24N00K  C2024 06 28.55762721 53 54.744-14 07 58.78         21.21GVEN036F51
     K24N00K  C2024 06 28.56750721 53 54.108-14 06 58.56         21.74GVEN036F51
     K24N00K* C2024 07 03.53055621 48 41.935-05 08 31.56         21.04wXEN036F51
     K24N00K  C2024 07 03.54195421 48 40.869-05 07 13.43         21.67wXEN036F51
     K24N00K  C2024 07 03.55334821 48 39.785-05 05 55.07         21.14wXEN036F51
     K24N00K KC2024 07 03.66439921 48 30.883-04 52 25.39         21.3 GVEN036474
     K24N00K KC2024 07 03.67191421 48 30.226-04 51 34.34         21.4 GVEN036474
     K24N00K KC2024 07 03.67942021 48 29.544-04 50 42.00         20.6 GVEN036474
     K24N00K KC2024 07 03.68692821 48 28.882-04 49 50.48         21.5 GVEN036474
     K24N00K pC2024 07 04.95538721 46 47.80 -02 24 03.4          20.8 GVEN036L01
     K24N00K KC2024 07 04.95791221 46 47.47 -02 23 45.5          20.5 GVEN036L01
Observer details:
474 Mount John Observatory, Lake Tekapo.  Observers A. C. Gilmore, P. M.
    Kilmartin.  Measurer P. M. Kilmartin.  0.6-m f/6.3 Reflector + CCD.
F51 Pan-STARRS 1, Haleakala.  Observers J. Herman, T. Lowe, P. Minguez, A.
    Schultz, I. Smith.  Measurers K. Chambers, T. de Boer, J. Fairlamb, H.
    Gao, M. Huber, C.-C. Lin, E. Magnier, Y. Ramanjooloo, R. Wainscoat, R.
    Weryk.  1.8-m Ritchey-Chretien + CCD.
L01 Visnjan Observatory, Tican.  Observers K. Korlevic, L. Poropat.  Measurer
    K. Korlevic.  1.0-m f/2.9 reflector + CCD.
Orbital elements:
2024 NK                                                  Earth MOID = 0.1478 AU
Epoch 2024 Mar. 31.0 TT = JDT 2460400.5                 MPC                     
M 282.80907              (2000.0)            P               Q                  
n   0.62897824     Peri.   27.50872     +0.64992008     +0.67213731             
a   1.3491046      Node   285.42587     -0.74723688     +0.47993796             
e   0.1480179      Incl.   21.59167     -0.13871171     +0.56381823             
P   1.57           H   23.01          G   0.15           U   7                  
Residuals in seconds of arc
240613 F51  0.0   0.3+    240628 F51  0.3+  0.0     240703 474  0.2-  0.4-
240613 F51  0.0   0.3-    240703 F51  0.0   0.1-    240703 474  0.1-  0.3+
240613 F51  0.1+  0.1-    240703 F51  0.1+  0.1-    240703 474  0.2+  0.2+
240628 F51  0.2+  0.2-    240703 F51  0.0   0.1+    240704 L01  0.4+  0.2+
240628 F51  0.1+  0.1+    240703 474  0.6-  0.2+    240704 L01 (1.0-  0.4+)
Ephemeris:
2024 NK                  a,e,i = 1.35, 0.15, 22                  q = 1.1494
Date    TT    R. A. (2000) Decl.     Delta      r    Elong.  Phase     V
2024 06 04    21 48 11.8 -42 20 53   0.3379  1.2007   115.8    49.5    22.9
...
2024 06 19    21 57 39.6 -28 07 38   0.2523  1.1784   124.8    45.1    22.1
...
2024 06 27    21 55 04.3 -16 42 57   0.2174  1.1689   130.2    41.6    21.7
...
2024 07 03    21 49 21.5 -06 08 38   0.1993  1.1628   133.4    39.4    21.4
2024 07 04    21 48 04.8 -04 14 26   0.1971  1.1619   133.8    39.2    21.4
2024 07 05    21 46 42.5 -02 18 24   0.1952  1.1611   134.1    39.0    21.3
...
2024 07 11    21 36 34.8 +09 38 27   0.1892  1.1565   134.2    39.1    21.3
...
2024 07 19    21 18 30.0 +24 45 03   0.1961  1.1521   130.0    42.5    21.4
...
2024 08 03    20 36 04.3 +44 01 20   0.2419  1.1495   118.3    51.0    22.1
A. U. Tomatic                (C) Copyright 2024 MPC           M.P.E.C. 2024-N36
    
    
More information about the Iaude
mailing list